OneWeb SL0718

operational
NORAD ID: 56081 Int'l Des: 2023-043 Owner: ONEWEBN Country: UK Constellation: oneweb
LEOCIRCULARPOLARONEWEB_TYPE

OneWeb SL0718について

説明を読み込み中...

リアルタイム位置

3D地球を読み込み中...

次回通過

高度履歴

Altitude vs Time

uPlot chart will show altitude changes over time

軌道要素

1 56081U 23043AM 25258.16838621 .00000009 00000-0 -10753-4 0 9999
2 56081 87.9030 314.0874 0002167 112.1908 247.9453 13.15549440120276
Epoch: Sep 15, 2025 • Age: 9 hours

現在のステータス

高度 1212.2 km
速度 7.25 km/s
衛星直下点 66.82°N, 121.53°E
打ち上げ日 Mar 26, 2023
運用期間 2.4 years
タイプ internet

技術仕様

分類 Payload
質量 148.00 kg
乾燥質量 140.00 kg
総質量 148.00 kg
長さ 1.30 m
直径 1.00 m
スパン 5.00 m
形状 Trapezoid+2 pan
製造者 ONEWUS
バスタイプ ARROW
フェーズステータス In Orbit
所有者/国 ONEWEBN/UK

大規模コンステレーション

Loading constellations...